Content
SEND FEEDBACK

Daily
Averages
Monthly
Summary
United States of America

ORANGEBURG, SOUTH CAROLINA


Home > North America > United States > South Carolina
Elevation: 195 feet     Latitude: 33 28N     Longitude: 080 51W

WEATHER
 
SELECT A DAY
Number of Records: 193,556;   Date Range: 3/20/97 - 10/21/14
 
SHARE

PRINT THIS DATA

[ ← Previous Day ]
WEATHER ALMANAC - NOVEMBER 16, 2013
[ Next Day → ]
[ °C ]   °F
Weather ElementAverageHighLow
Temperature56.3 °F75.9 °F (2:53 pm)48.2 °F (6:32 am)
Dewpoint51 °F57 °F (10:53 am)46.4 °F (6:43 am)
Humidity84.5 %100 % (6:32 am)48 % (2:53 pm)
Barometer30.20 in30.24 in (9:53 am)30.15 in (4:53 pm)
Wind Speed1.1 mph6.9 mph (11:53 am)
Weather ElementAverage
Visibility5 mi
Wind DirectionNNE (7.5 °)

Weather ElementTotal
Precipitation---
Heating Degree Days3 (Base 65)
Growing Degree Days12.1 (Base 50)
Averaged from 40 records on November 16, 2013
WEATHER CONDITIONS BREAKOUT
WIND DIRECTION BREAKOUT
WEATHER BY HOUR - NOVEMBER 16, 2013
[ °C ]   °F
Local TimeTemperatureDewpointHumidityBarometerVisibilityWind DirectionWind SpeedGust SpeedPrecipitationEventsConditions
1:53 AM57.0 °F53.1 °F87 %30.19 in8.0 miCalmMostly Cloudy
2:53 AM53.1 °F51.1 °F93 %30.20 in7.0 miCalmScattered Clouds
3:53 AM51.1 °F48.9 °F92 %30.19 in3.0 miCalmMostly Cloudy
3:58 AM51.8 °F50.0 °F94 %30.20 in1.8 miCalmMostly Cloudy
4:07 AM51.8 °F50.0 °F94 %30.20 in3.0 miCalmMostly Cloudy
4:16 AM51.8 °F50.0 °F94 %30.20 in4.0 miCalmPartly Cloudy
4:53 AM51.1 °F48.9 °F92 %30.21 in2.5 miCalmPartly Cloudy
4:57 AM51.8 °F48.2 °F88 %30.21 in1.5 miCalmPartly Cloudy
5:06 AM51.8 °F48.2 °F88 %30.20 in2.0 miCalmPartly Cloudy
5:14 AM50.0 °F48.2 °F94 %30.20 in4.0 miCalmClear
5:32 AM51.8 °F48.2 °F88 %30.20 in1.5 miCalmClear
5:40 AM50.0 °F48.2 °F94 %30.20 in0.2 miCalmFogFog
5:53 AM50.0 °F48.0 °F93 %30.20 in1.8 miCalmScattered Clouds
6:01 AM50.0 °F48.2 °F94 %30.20 in3.0 miCalmMostly Cloudy
6:10 AM50.0 °F48.2 °F94 %30.20 in1.8 miCalmMostly Cloudy
6:13 AM50.0 °F48.2 °F94 %30.20 in0.8 miCalmMostly Cloudy
6:32 AM48.2 °F48.2 °F100 %30.20 in1.8 miCalmPartly Cloudy
6:43 AM48.2 °F46.4 °F93 %30.21 in2.0 miCalmPartly Cloudy
6:46 AM48.2 °F46.4 °F93 %30.21 in1.8 miCalmPartly Cloudy
6:53 AM48.9 °F46.9 °F93 %30.21 in2.0 miCalmPartly Cloudy
6:58 AM48.2 °F46.4 °F93 %30.21 in1.5 miCalmPartly Cloudy
7:11 AM50.0 °F48.2 °F94 %30.21 in3.0 miCalmPartly Cloudy
7:21 AM48.2 °F48.2 °F100 %30.21 in2.5 miCalmPartly Cloudy
7:53 AM51.1 °F50.0 °F96 %30.22 in4.0 miCalmClear
8:53 AM60.1 °F54.0 °F80 %30.23 in7.0 miNE (40°)4.6 mphClear
9:53 AM64.9 °F55.9 °F73 %30.24 in10.0 miNNE (20°)5.8 mphClear
10:53 AM69.1 °F57.0 °F65 %30.24 in10.0 miVariable3.5 mphClear
11:53 AM72.0 °F55.9 °F57 %30.22 in10.0 miEast (80°)6.9 mphClear
12:53 PM73.9 °F55.9 °F53 %30.19 in10.0 miEast (80°)5.8 mphScattered Clouds
1:53 PM75.0 °F55.0 °F50 %30.17 in10.0 miNNE (30°)4.6 mphPartly Cloudy
2:53 PM75.9 °F55.0 °F48 %30.16 in10.0 miVariable6.9 mphPartly Cloudy
3:53 PM73.9 °F54.0 °F50 %30.16 in10.0 miNE (50°)5.8 mphMostly Cloudy
4:53 PM70.0 °F55.0 °F59 %30.15 in10.0 miCalmPartly Cloudy
5:53 PM64.0 °F55.9 °F75 %30.16 in8.0 miCalmClear
6:53 PM61.0 °F55.9 °F83 %30.17 in10.0 miCalmClear
7:53 PM57.9 °F55.0 °F90 %30.19 in8.0 miCalmClear
8:53 PM57.0 °F54.0 °F89 %30.20 in7.0 miCalmClear
9:53 PM55.9 °F53.1 °F90 %30.21 in7.0 miCalmClear
10:53 PM55.0 °F52.0 °F89 %30.20 in5.0 miCalmClear
11:53 PM54.0 °F52.0 °F93 %30.19 in5.0 miCalmClear
Hourly data recorded from KOGB, located miles away from Orangeburg, South Carolina







STORIES FROM OUR PARTNERS